Wind_Speed
29 31 38 46 49 47 43 41 43 41 30 21 22 24 23 24 26 28 29 31 31 30 35 37 40 44 43 42 40 36 36 38 41 41 41 40 36 32 31 33 35 36 35 31 32 34 33 33 34 33 33 32 32 32 32 33 31 30 30 29 29 29 29 29 28 28 27 26 26 24 23 23 23 25 26 26 26 26 26 28 29 31 32 33 32 32
28 34 44 48 46 42 41 41 40 40 40 34 28 26 25 23 24 25 24 25 24 27 34 34 36 44 45 43 42 40 39 40 42 43 42 42 39 36 34 34 35 35 34 32 33 35 34 34 35 35 35 35 34 34 34 33 32 31 31 30 30 30 30 30 30 29 28 27 25 24 24 25 26 26 26 26 25 26 27 28 30 31 32 33 32 32
29 40 47 43 38 37 36 36 35 36 38 38 37 35 35 35 30 25 26 25 23 28 34 34 38 48 49 46 46 45 44 44 43 43 42 42 41 39 38 36 36 36 34 34 34 34 35 35 36 37 36 37 36 35 35 34 33 33 33 31 31 31 30 30 31 30 28 27 26 25 26 27 27 27 26 26 26 27 28 29 30 32 32 32 32 32
33 40 41 36 35 36 34 32 31 30 31 35 39 39 44 45 33 28 31 27 26 30 34 34 40 51 53 50 51 48 46 47 45 43 42 42 43 42 40 38 37 37 36 36 36 35 36 37 38 39 38 38 38 37 37 35 34 34 33 32 31 31 30 30 31 31 29 28 27 27 28 28 28 28 27 27 27 27 28 30 31 32 31 31 31 31
38 37 29 25 30 32 34 35 33 31 32 35 38 40 45 42 30 30 31 24 23 24 26 26 29 47 57 51 52 50 46 48 47 45 44 43 44 42 41 41 39 38 38 37 37 36 38 39 40 40 39 39 40 39 37 36 35 36 34 33 32 32 31 31 32 31 30 29 29 30 30 29 28 28 27 26 27 27 29 30 31 31 31 31 31 30
40 37 28 24 25 26 30 34 34 35 36 36 38 40 42 37 29 29 29 25 23 21 27 23 14 34 56 49 46 47 44 47 47 46 47 45 44 43 42 42 40 39 38 37 37 37 39 41 41 41 40 41 42 41 39 38 37 37 36 34 34 34 33 32 32 32 31 30 30 31 30 28 27 27 27 26 27 29 30 31 31 31 30 30 30 29
40 38 33 30 27 25 27 31 34 34 34 36 38 37 35 33 31 31 31 27 20 17 22 19 9 23 49 48 42 42 42 46 46 44 47 46 44 45 43 42 41 39 39 38 38 38 40 42 41 41 41 42 42 41 40 40 40 39 37 36 36 35 34 33 33 33 32 31 31 31 29 28 27 27 27 28 28 30 30 31 31 30 29 29 29 29
40 38 34 31 28 27 28 33 35 32 32 35 35 31 26 26 27 30 33 30 26 22 15 13 14 16 38 51 47 43 41 43 46 45 46 46 44 45 43 42 41 39 38 38 38 39 40 41 42 40 40 41 41 41 42 42 41 40 39 38 37 36 36 35 34 34 33 32 31 30 29 28 28 28 28 29 29 30 31 31 30 29 28 29 29 29
41 38 35 33 31 31 34 37 35 31 31 33 33 29 24 22 21 23 29 30 28 23 16 22 23 10 26 49 45 41 43 43 48 48 44 44 43 43 43 40 39 37 37 37 37 38 38 40 41 40 39 40 40 41 41 42 42 41 41 39 38 38 37 36 35 34 33 32 31 30 30 29 29 29 29 30 30 30 30 30 29 28 27 28 28 29
38 33 32 34 36 36 37 38 34 29 30 33 33 28 22 19 18 19 22 27 23 15 17 31 31 14 23 46 39 36 43 45 49 49 45 45 44 43 42 39 37 35 35 36 36 37 37 38 39 39 39 40 40 41 41 42 43 43 42 40 40 39 38 37 36 35 34 33 32 31 30 30 29 30 30 30 30 30 30 29 28 27 27 28 28 27
38 32 28 30 34 35 36 35 31 28 27 31 32 26 20 16 17 18 19 20 14 9 21 38 38 22 17 40 41 38 49 51 48 47 45 45 44 43 42 39 37 35 35 36 37 38 37 37 37 37 38 38 39 40 40 42 43 43 42 41 41 40 38 38 36 35 34 33 32 31 30 30 30 30 30 30 30 29 29 27 26 26 27 28 27 26
40 36 32 30 30 31 33 32 30 27 27 31 30 25 18 11 13 13 15 17 8 6 27 39 36 26 17 38 42 34 43 46 43 46 47 46 45 44 41 39 37 36 36 36 36 37 37 36 37 37 37 37 37 38 38 40 41 42 43 42 42 40 39 38 36 34 34 33 32 31 31 31 30 31 31 30 29 29 28 26 24 25 26 27 27 26
44 44 40 35 33 31 29 30 29 27 30 34 31 27 17 7 8 7 7 11 6 12 29 27 20 24 27 48 53 38 34 34 34 40 41 43 43 40 38 38 37 37 35 36 35 35 35 35 35 36 36 36 36 37 38 39 40 40 41 41 41 40 39 38 35 34 34 33 32 31 31 31 31 31 30 29 29 28 27 25 24 24 25 26 26 26
33 37 41 42 41 38 35 33 30 29 33 37 34 30 18 6 4 5 5 5 5 18 32 23 15 16 21 45 59 51 45 39 38 38 33 34 35 29 27 27 28 31 31 33 33 31 32 33 33 34 35 35 35 36 38 39 38 37 37 38 39 40 38 36 34 34 34 33 32 32 32 32 32 31 30 29 29 27 26 24 23 23 24 25 25 25
19 19 27 32 35 39 43 43 38 31 32 39 39 33 28 19 9 5 5 5 5 12 21 19 15 9 14 40 52 44 41 37 37 41 38 38 40 37 34 29 26 25 25 29 28 25 25 28 32 35 35 36 36 37 38 39 38 37 35 34 35 36 35 34 34 34 34 33 33 33 33 32 32 31 30 29 28 27 25 23 22 22 24 24 24 25
25 26 27 28 27 29 33 37 39 35 29 33 38 36 34 31 23 15 14 15 13 8 8 14 14 13 24 50 52 38 37 30 27 35 36 34 35 36 39 38 34 28 25 25 25 25 26 27 30 35 37 38 38 38 40 40 40 37 35 34 34 34 33 33 33 34 34 34 34 33 33 32 32 31 30 29 28 26 24 22 21 22 23 23 23 24
19 23 28 29 30 30 30 31 34 38 33 29 36 41 39 36 32 24 18 19 15 9 10 15 15 20 27 45 53 48 46 40 34 35 34 30 27 26 27 27 28 31 32 32 33 35 33 29 29 33 35 35 34 34 35 37 39 38 35 34 35 35 34 34 34 34 34 34 34 33 32 32 32 30 29 29 28 26 23 21 21 21 22 23 22 23
12 18 25 26 25 27 28 28 31 36 38 34 35 41 40 36 36 26 10 8 11 7 10 18 20 23 22 30 46 46 42 43 42 40 41 40 37 35 31 22 16 20 23 27 33 36 33 30 29 31 32 31 31 32 32 34 35 36 37 35 35 35 34 34 34 35 35 34 33 33 32 32 31 30 29 29 28 25 22 21 20 21 21 21 22 22
16 18 24 28 26 26 26 26 29 33 41 41 33 32 32 25 26 26 12 5 10 7 7 17 23 27 30 35 46 46 40 35 25 23 31 35 35 37 37 31 24 18 15 15 19 24 26 28 29 28 28 28 29 32 34 35 34 36 38 37 36 35 34 34 35 35 34 34 33 32 32 32 31 31 30 29 28 25 22 21 20 20 20 20 21 21
19 12 10 14 16 23 29 31 31 30 37 43 36 29 32 27 21 25 24 14 10 6 7 13 13 17 31 42 50 55 55 44 28 21 22 21 23 26 27 30 31 28 26 23 21 19 21 25 28 27 26 26 25 28 33 36 36 37 39 38 37 36 35 35 36 35 34 34 33 33 32 33 32 31 31 29 27 25 23 21 19 19 19 19 20 21
23 14 12 14 11 15 23 29 33 32 33 40 41 33 32 31 22 19 24 25 18 8 5 9 9 15 30 41 48 55 55 49 42 35 28 24 25 23 23 25 26 30 33 32 30 27 24 24 26 28 28 26 25 26 30 34 35 36 37 37 37 36 35 35 35 35 35 34 33 33 33 33 33 32 31 29 27 26 24 21 19 17 17 18 19 19
23 17 18 22 22 20 19 20 28 35 35 37 42 42 38 35 27 14 12 22 26 16 10 9 8 16 30 37 43 49 48 45 44 40 35 31 28 24 25 24 23 27 30 31 31 30 26 23 25 28 29 27 27 28 29 32 34 35 35 35 35 34 34 34 34 34 34 33 32 32 33 34 33 33 32 29 28 26 25 22 18 17 16 17 18 18
22 19 19 22 25 28 26 21 20 25 34 37 39 43 44 43 39 23 9 15 24 24 23 19 12 16 26 29 30 34 35 35 37 38 35 35 33 30 29 27 23 25 26 25 27 27 27 28 29 30 31 30 30 30 30 32 34 34 34 34 34 33 33 34 34 33 33 33 33 33 34 35 34 34 32 30 28 27 25 22 19 17 16 16 16 17
17 14 14 18 24 28 27 24 22 23 30 33 31 33 35 38 42 38 28 24 22 22 23 15 10 17 27 28 26 25 27 27 29 29 27 31 35 36 37 36 32 29 29 30 32 34 35 34 33 33 32 31 31 31 31 32 33 33 32 32 32 32 33 33 34 34 34 34 34 35 35 35 34 34 33 31 29 28 26 23 20 17 16 15 15 15
15 14 12 13 16 19 18 15 17 20 22 19 16 18 19 22 27 32 36 34 23 21 23 13 8 20 32 35 33 29 27 27 27 24 20 22 28 30 32 33 31 29 31 32 33 35 35 33 33 34 32 30 31 32 32 32 32 31 31 30 31 33 34 35 35 35 35 35 35 36 35 35 34 34 33 31 29 28 27 24 22 19 17 15 14 14
20 20 15 8 6 8 8 7 8 13 19 22 18 14 16 16 13 14 21 24 17 20 29 20 10 17 30 34 35 37 36 31 28 25 20 19 22 24 25 26 26 27 29 31 31 31 31 31 33 35 33 31 33 33 33 32 31 30 30 31 32 34 35 35 36 36 36 35 35 35 35 34 34 33 32 31 30 29 28 26 23 21 18 16 14 13
23 24 22 18 18 19 20 25 29 30 34 34 29 28 31 28 22 22 21 16 13 17 29 31 24 22 29 30 25 27 35 35 30 25 22 20 23 26 27 28 29 31 31 31 32 31 32 33 35 35 34 34 36 35 33 32 30 30 31 32 34 35 35 35 35 34 34 34 34 34 34 33 33 32 32 31 30 30 29 27 25 23 21 18 16 14
22 25 24 22 24 29 31 37 40 36 35 37 36 39 43 38 31 26 20 19 21 17 17 27 30 31 39 40 25 12 15 20 16 14 15 15 16 17 20 22 24 27 29 30 32 34 35 35 34 33 32 33 35 35 34 33 31 31 32 33 34 36 36 35 34 34 33 33 34 34 33 33 32 32 32 31 30 29 29 27 26 25 23 21 19 16
24 28 27 25 27 31 33 36 36 31 31 35 33 32 35 35 30 25 24 29 30 22 19 21 25 31 41 49 41 23 13 10 7 6 8 9 9 8 9 11 14 17 21 25 30 33 36 36 33 31 30 30 33 35 36 35 33 33 34 35 35 36 35 34 33 33 33 33 34 33 33 33 32 32 31 30 29 28 28 27 26 25 24 22 21 19
23 26 25 23 25 26 26 27 28 26 26 30 30 29 32 35 36 32 31 35 35 33 33 31 32 33 33 42 51 44 29 19 14 10 10 10 10 10 9 9 9 10 11 15 19 23 28 31 32 32 31 31 33 37 38 36 35 34 34 34 35 36 35 34 33 33 32 33 33 33 33 33 32 31 30 29 28 27 27 26 26 25 24 23 22 21
19 23 22 20 21 23 24 25 27 28 29 31 34 35 34 34 35 32 30 33 35 36 37 34 35 36 30 34 45 49 45 41 37 32 28 24 21 19 19 18 16 13 12 11 11 14 18 22 26 29 30 32 35 38 38 37 35 35 34 34 35 35 35 34 33 32 32 33 33 33 33 32 31 30 29 28 27 27 25 24 24 24 23 23 22 22
21 25 27 25 25 27 29 28 29 31 31 31 33 32 28 26 27 28 29 32 33 33 36 37 39 37 30 31 38 44 45 47 49 48 45 40 35 32 30 30 28 24 20 17 15 15 16 19 21 23 25 28 32 36 39 39 38 37 35 35 36 35 34 34 34 32 32 32 33 33 32 32 30 29 28 27 26 26 25 24 23 22 22 22 21 22
27 28 30 26 21 26 30 28 29 29 24 23 28 30 30 32 33 34 36 36 34 31 32 36 37 34 28 26 34 45 48 45 47 49 48 44 43 42 40 40 39 36 31 28 27 28 27 24 22 22 23 25 28 32 35 38 39 39 37 35 35 35 35 35 34 32 32 32 33 33 32 32 30 29 28 27 26 25 24 23 22 21 21 21 21 21
29 28 29 25 20 25 33 33 30 24 14 16 24 27 28 31 34 36 38 37 33 28 27 31 36 36 31 27 31 42 46 41 36 38 40 40 40 40 41 42 43 42 41 39 38 37 37 34 29 26 25 25 26 28 31 35 37 37 37 36 35 37 37 36 34 33 33 33 34 34 33 33 31 30 30 29 27 26 25 23 22 21 20 20 20 20
34 32 30 28 25 27 33 30 19 12 12 18 25 26 28 31 32 33 34 33 29 26 27 31 35 37 35 33 34 38 42 39 30 26 30 35 36 35 35 37 40 41 43 42 39 37 38 37 35 33 30 28 26 26 28 31 32 34 36 38 38 39 39 38 36 36 35 35 36 36 36 35 34 33 33 32 31 29 28 26 25 23 22 21 20 20
37 36 32 31 28 25 25 20 13 14 22 26 23 21 22 22 21 24 29 29 24 22 24 24 26 31 35 37 37 37 38 38 34 28 22 24 29 33 34 34 35 37 39 38 37 35 33 33 34 36 34 32 30 27 26 28 29 31 35 39 41 41 40 40 39 38 37 37 37 37 36 35 35 34 34 34 34 33 32 31 29 27 26 25 23 22
38 37 34 30 28 25 23 22 22 24 29 32 33 32 30 28 27 28 34 37 31 28 30 29 28 29 32 34 37 37 34 34 36 37 31 24 24 28 32 33 32 32 34 36 37 36 32 29 30 31 31 32 33 32 30 29 30 32 35 39 42 43 42 42 41 39 37 37 37 36 34 33 33 32 33 33 34 34 34 34 34 32 31 30 28 26
39 40 36 31 29 30 26 20 17 15 16 24 32 31 29 28 27 27 35 42 38 33 34 36 37 37 36 34 34 35 35 36 36 37 37 35 31 28 28 30 31 31 31 32 36 36 33 30 29 29 30 30 33 36 35 34 34 34 36 39 43 44 45 45 42 39 37 36 35 35 34 32 31 31 32 34 34 34 34 34 35 36 35 35 33 32
38 41 40 35 32 32 26 14 8 11 17 24 29 27 23 20 19 21 27 34 35 31 28 28 31 36 38 38 38 38 38 39 38 36 36 37 37 35 32 30 31 33 34 34 34 33 31 29 29 31 32 32 33 35 36 36 37 38 39 41 44 46 48 47 45 41 39 37 35 35 35 33 32 33 34 35 36 36 37 36 35 36 37 37 37 36
36 38 39 38 36 36 31 21 16 21 26 29 31 31 25 21 22 22 19 19 21 22 21 21 23 27 28 27 29 31 33 35 37 36 34 31 31 33 33 32 30 31 32 34 34 33 34 34 33 34 35 35 35 35 36 38 41 42 43 43 46 48 50 49 47 44 41 39 36 36 37 36 34 34 35 37 38 39 40 40 39 37 36 37 38 38
35 37 37 39 38 38 34 26 21 27 33 33 33 31 24 21 23 22 19 18 18 18 19 19 19 22 23 23 23 26 29 31 33 34 32 28 26 26 27 29 31 29 28 30 32 32 34 35 36 38 38 37 37 37 36 37 42 45 46 46 48 50 50 50 49 47 45 43 41 41 41 40 38 37 37 38 39 41 43 44 43 40 38 37 37 37
32 31 32 35 36 36 35 29 23 26 33 36 36 34 29 27 28 28 28 30 30 30 30 29 26 25 27 30 31 32 33 34 35 36 36 35 33 30 28 28 30 32 31 30 31 32 33 32 34 38 40 40 40 40 37 37 40 44 48 49 50 51 51 51 50 49 48 47 46 45 45 44 43 42 40 40 42 43 44 46 47 45 41 38 37 38
33 28 27 31 33 31 29 23 16 18 26 31 33 33 32 32 31 29 27 26 27 27 26 28 31 32 32 32 33 34 36 38 39 40 42 43 43 41 38 34 33 34 34 34 35 37 37 35 34 37 39 40 41 40 39 39 40 42 46 49 50 51 52 53 52 51 50 49 48 48 47 48 48 47 46 45 45 45 46 47 49 49 46 40 38 38
36 32 29 31 31 27 23 20 19 24 30 31 31 30 29 30 30 30 27 25 24 19 14 16 23 29 31 32 33 33 36 40 44 45 45 44 44 42 40 39 37 36 36 36 38 41 40 38 37 38 39 39 39 39 39 40 42 43 44 46 48 49 51 52 52 51 51 51 51 51 51 52 52 52 52 51 50 50 50 49 50 51 49 44 41 39
39 38 36 36 35 32 30 29 28 30 30 28 28 28 27 26 26 27 28 26 25 23 19 17 18 18 21 25 27 28 30 32 35 37 35 35 36 36 37 37 36 37 38 38 39 40 40 39 39 39 40 38 37 37 38 41 44 44 42 41 44 47 50 52 53 54 54 55 55 56 57 57 58 57 57 56 55 54 53 51 50 51 50 47 44 42
41 40 39 41 40 38 37 36 34 33 32 31 29 27 26 27 28 27 28 28 29 30 29 26 24 22 21 20 20 21 22 22 24 25 27 30 32 34 35 35 34 35 38 41 40 39 38 39 38 39 39 38 36 36 38 41 45 46 44 41 42 44 46 48 51 54 56 58 60 61 62 62 61 61 60 59 58 56 54 52 51 51 51 49 47 45
35 35 37 40 40 37 38 39 38 37 37 37 36 33 33 35 35 33 32 33 33 33 30 28 26 25 23 21 20 20 20 19 20 22 24 28 31 32 33 35 34 34 37 41 42 41 40 39 37 36 36 36 35 35 36 40 44 47 48 47 44 44 44 44 44 45 47 50 53 55 56 58 58 59 58 57 56 55 54 53 51 51 51 51 49 47
30 31 35 38 39 38 39 39 37 35 36 37 37 37 37 37 36 33 31 30 31 31 31 28 27 27 26 25 24 22 21 19 18 18 20 22 26 28 30 32 34 35 37 40 42 44 44 42 38 36 34 33 32 32 34 38 42 46 49 48 46 44 43 42 42 41 41 42 44 46 48 50 52 53 53 52 52 53 53 53 52 51 51 51 50 48
28 29 31 32 35 37 38 37 35 35 36 35 35 36 35 34 34 32 28 26 26 27 28 27 27 27 26 24 23 22 21 20 19 17 17 17 19 22 24 27 31 34 36 38 40 42 45 45 41 38 35 32 30 30 31 36 40 43 46 46 42 39 38 38 39 38 38 38 39 40 42 44 46 48 48 48 48 50 52 53 52 52 51 51 50 49
29 30 31 30 30 32 33 32 31 31 32 31 31 32 31 28 26 24 22 21 21 21 23 23 23 23 21 20 20 20 20 20 19 17 16 16 17 18 20 22 26 29 33 36 38 40 44 45 43 40 37 33 30 29 30 33 36 39 40 40 36 34 34 34 35 35 35 36 36 36 37 38 41 43 45 46 47 49 50 51 51 51 50 49 48 47
32 33 33 33 32 32 32 30 28 27 28 28 27 26 25 24 22 20 20 21 20 19 20 21 22 21 21 20 21 21 20 19 18 17 17 16 17 18 18 18 21 25 28 32 35 38 42 43 42 39 36 32 30 28 28 30 33 34 34 35 34 33 33 34 34 34 34 35 35 36 35 36 37 39 41 43 45 47 49 49 48 48 47 46 45 45
Wind_Direction
232 232 231 232 234 232 229 230 234 234 231 227 222 226 238 243 247 248 247 249 251 255 259 261 266 268 266 265 264 260 258 257 257 258 257 253 248 242 238 238 239 239 239 239 239 240 238 238 239 239 238 238 237 236 237 239 238 238 238 237 237 238 239 243 246 248 248 249 252 255 256 255 254 254 255 258 262 265 268 271 274 277 279 280 281 281
235 234 236 237 238 236 236 238 240 239 236 234 228 228 235 235 238 245 246 249 251 255 260 263 267 267 266 267 268 264 258 252 252 257 258 257 254 248 243 239 238 239 238 236 237 240 239 238 239 239 239 238 237 238 239 241 241 241 240 237 235 236 238 243 246 247 248 250 253 255 254 253 254 255 258 260 263 265 268 271 274 277 279 280 281 282
234 237 239 240 240 240 240 240 242 245 243 239 237 239 244 242 242 249 251 252 254 257 263 266 267 267 266 267 266 264 258 250 251 256 256 258 258 253 248 243 240 240 238 236 237 240 240 238 238 238 238 239 238 239 241 242 241 241 241 238 236 237 239 242 245 247 248 250 253 254 252 253 256 257 258 260 262 265 269 272 274 276 278 281 282 281
232 242 246 243 242 243 240 236 236 243 246 242 238 239 245 246 244 250 254 257 258 259 265 268 270 270 267 265 263 260 258 254 254 256 254 255 257 255 253 250 246 242 240 240 239 241 243 241 240 238 238 240 241 240 240 241 242 243 243 241 239 240 241 242 244 246 247 249 250 251 251 254 257 258 258 260 263 266 270 272 274 277 278 280 281 279
241 249 253 250 249 245 240 237 232 231 237 240 239 237 243 246 244 248 254 258 259 259 261 267 279 273 266 266 264 260 260 258 255 256 254 253 254 254 254 252 250 246 243 243 242 243 244 243 242 241 241 242 244 244 243 242 243 244 244 244 242 242 241 241 242 244 245 246 248 250 253 256 259 260 260 262 265 267 268 271 274 277 280 282 281 278
250 253 249 251 256 248 240 237 231 229 232 237 241 243 246 246 244 248 251 251 253 257 260 263 286 276 267 269 269 265 263 257 254 257 255 252 254 254 253 252 250 250 248 247 246 245 245 245 244 244 243 243 244 246 246 245 244 244 244 244 243 242 241 240 241 242 243 245 247 250 254 257 259 260 261 262 264 265 267 271 275 279 283 285 283 279
252 255 248 245 249 247 242 234 230 229 230 236 244 248 251 249 245 245 244 242 245 256 266 257 233 269 273 271 268 267 265 258 256 257 254 252 254 254 253 253 252 252 251 250 249 247 247 247 246 245 244 244 245 245 247 247 246 245 244 243 242 242 241 241 240 241 243 245 247 250 254 255 254 255 257 259 261 264 268 273 278 283 285 284 282 279
251 251 246 243 241 238 234 230 231 229 228 240 250 253 252 248 245 243 240 239 242 248 257 245 227 260 274 268 265 264 263 262 259 255 251 251 252 253 253 255 255 255 254 253 251 249 249 249 248 246 245 245 245 244 245 246 247 246 245 243 242 241 241 240 241 241 243 245 247 250 252 251 251 253 255 257 260 264 269 274 281 286 287 285 282 278
252 249 245 246 240 230 229 236 241 233 230 244 255 254 247 245 245 239 237 237 241 245 243 240 235 239 268 264 265 266 264 262 257 252 251 251 251 253 254 254 255 255 255 254 252 250 249 250 249 247 246 245 243 243 242 244 245 245 245 243 241 240 239 240 240 242 243 244 245 247 248 248 249 250 252 256 260 265 270 276 282 286 287 283 280 277
251 247 248 248 242 235 237 245 244 235 234 243 249 249 244 243 236 227 232 234 232 234 238 239 229 214 266 264 258 262 263 260 256 253 253 254 254 255 255 254 254 252 250 250 249 249 247 247 248 247 246 244 243 242 241 241 242 243 243 241 239 239 239 239 240 241 242 243 244 245 246 246 247 249 251 255 260 265 271 277 283 287 286 282 278 275
250 248 247 243 241 241 243 244 239 233 234 239 242 240 236 232 219 217 223 223 219 227 239 241 228 206 258 268 258 255 258 259 260 258 257 257 257 256 256 256 257 254 249 246 246 246 246 246 246 246 245 244 243 243 241 241 241 241 241 239 238 238 238 238 239 240 240 241 243 244 244 244 245 247 250 254 260 265 271 277 284 286 285 283 279 274
247 245 240 236 238 241 242 238 235 233 229 233 236 227 222 211 200 210 208 204 199 229 242 245 230 202 225 260 259 258 260 262 264 261 260 260 259 258 259 259 257 255 250 247 246 246 246 246 246 246 245 244 243 243 242 242 241 240 240 239 238 238 237 237 237 237 238 240 242 242 241 242 243 246 249 254 259 265 271 278 283 284 283 281 278 275
247 245 241 239 237 236 237 236 233 229 223 229 225 209 206 184 182 198 185 203 211 228 244 247 217 201 228 252 255 256 256 259 261 261 261 262 262 262 263 262 259 256 252 249 247 247 247 246 245 246 245 244 242 241 241 241 241 240 239 239 238 238 237 236 236 235 236 238 240 239 239 240 242 245 248 253 258 264 271 278 283 283 280 276 274 273
252 251 246 243 241 236 231 227 224 217 213 219 213 199 199 182 185 210 187 216 225 233 246 241 201 202 231 251 257 257 255 253 255 258 258 260 262 262 260 260 262 258 250 247 245 245 246 245 244 243 242 240 238 238 238 239 240 240 239 237 237 237 236 235 233 233 235 236 236 235 236 238 240 244 248 251 257 263 270 277 280 280 277 274 272 270
253 254 246 242 243 244 237 230 228 223 215 218 216 210 211 206 203 205 186 204 209 236 244 221 197 174 209 245 254 260 262 258 253 254 255 258 259 258 257 258 261 255 239 234 234 236 242 245 242 237 235 235 234 235 237 238 239 239 238 236 234 234 234 232 230 232 233 233 232 233 234 237 239 242 246 250 256 262 269 275 277 276 274 272 271 270
251 252 254 254 256 257 251 241 233 226 222 223 220 218 217 214 220 232 232 227 217 231 225 190 192 192 224 250 254 256 265 264 259 256 253 256 259 260 261 259 255 247 232 228 233 244 252 251 244 236 231 232 233 234 236 237 237 238 238 236 234 234 232 231 231 232 232 230 230 232 233 236 238 241 245 249 254 260 267 272 274 273 272 271 270 270
256 257 254 257 257 255 259 258 239 223 221 222 216 217 221 220 225 235 245 238 224 232 212 184 197 212 234 258 256 252 258 258 258 257 252 252 253 252 259 260 251 241 239 241 244 251 254 251 245 236 230 228 230 234 237 237 237 236 236 236 235 234 232 231 231 230 229 229 229 231 233 235 238 241 244 248 252 258 264 268 270 271 271 271 269 269
305 296 257 247 249 247 251 256 246 231 224 218 214 221 227 225 226 231 246 237 218 232 215 191 200 208 216 253 257 254 256 256 256 257 256 257 254 251 252 250 240 232 237 244 243 241 241 240 238 232 228 230 234 240 242 239 236 232 232 233 233 232 231 230 230 228 228 227 228 230 233 235 238 240 243 246 250 256 261 265 267 269 271 270 268 270
328 316 263 253 253 249 246 237 235 233 225 220 219 223 223 219 222 224 224 239 222 232 232 206 208 210 211 237 254 254 252 254 258 259 260 259 256 255 252 245 238 227 228 245 245 236 231 234 236 233 235 241 244 243 240 236 232 227 227 229 230 230 228 226 226 226 226 227 229 231 233 235 238 239 242 245 249 253 257 261 265 269 271 269 267 270
318 320 271 270 260 248 245 231 222 222 220 221 225 227 223 220 220 219 220 230 233 232 240 223 217 216 221 237 251 253 251 251 252 257 265 266 259 257 255 251 246 238 237 247 252 245 234 233 237 240 244 247 247 240 233 231 230 226 226 228 230 229 226 224 223 223 225 227 229 231 232 235 237 239 242 244 247 250 254 258 263 268 271 269 266 270
307 307 289 289 275 245 236 225 222 223 216 217 221 224 223 221 222 228 226 225 230 238 238 231 232 229 230 239 250 254 255 255 255 257 261 265 265 260 260 258 248 238 236 238 241 242 239 241 246 251 252 248 243 237 231 230 230 228 227 227 229 228 224 223 224 225 226 228 229 230 232 235 236 238 241 243 245 248 252 256 261 266 269 269 266 269
304 306 301 294 284 272 256 233 230 232 225 220 221 222 223 220 219 233 234 221 226 235 237 241 249 238 237 243 251 255 260 263 262 260 257 258 259 256 256 253 235 224 221 221 227 229 232 246 257 261 259 249 238 232 229 228 228 228 228 226 227 225 222 223 225 227 228 229 230 232 233 235 236 238 240 241 243 246 250 253 257 263 268 269 267 267
303 297 293 290 284 279 272 249 229 231 230 226 222 222 226 223 216 219 225 217 223 230 237 250 260 244 238 242 250 258 265 266 262 260 256 251 247 245 247 242 223 211 211 218 227 232 240 254 261 262 260 248 235 229 227 224 223 224 224 223 225 225 224 225 226 227 228 229 231 232 232 234 235 238 239 240 242 244 247 250 253 260 265 268 269 267
309 294 289 296 291 287 279 253 237 240 236 230 227 225 229 227 221 222 225 225 228 225 225 238 255 243 238 237 240 251 260 260 258 258 255 247 245 244 245 245 238 231 234 241 245 250 256 260 259 257 253 244 232 225 223 221 220 221 222 223 226 227 226 227 227 229 230 230 231 230 231 233 235 238 239 239 240 242 245 247 249 255 261 266 269 267
305 295 308 323 307 296 289 262 243 242 241 248 249 230 231 239 232 230 230 231 237 232 225 228 242 238 238 237 238 242 249 255 255 253 246 239 241 243 242 244 243 241 246 250 252 255 257 257 252 248 244 237 230 223 220 220 221 222 224 226 228 227 227 228 228 231 231 230 230 229 230 233 235 238 239 238 239 241 243 245 246 250 255 261 266 267
297 290 294 299 285 288 289 269 264 278 289 299 293 259 258 265 256 264 257 243 237 232 230 233 242 240 237 237 241 244 246 254 258 253 244 236 237 242 244 246 247 249 252 254 252 250 248 246 244 240 235 231 228 223 219 221 222 224 224 226 227 228 228 229 230 230 229 227 227 228 230 233 235 238 239 237 238 240 243 244 244 247 250 255 261 264
284 282 277 263 254 260 267 267 272 287 298 299 294 286 286 284 282 297 295 271 264 253 236 233 236 242 239 235 239 245 245 250 256 255 252 251 251 253 255 254 252 253 252 249 246 241 238 237 236 234 230 226 224 220 218 222 223 224 225 226 227 228 228 229 229 227 225 225 226 228 230 232 235 236 237 237 237 239 242 244 244 246 247 251 256 259
273 272 267 258 256 262 269 272 274 281 287 288 288 288 287 287 288 294 293 282 289 291 256 237 234 235 237 237 232 217 227 238 245 249 248 245 247 250 249 245 242 241 239 237 237 234 232 232 231 228 225 223 222 219 217 221 224 225 227 226 227 229 228 227 226 224 223 223 225 227 229 231 233 235 236 237 236 238 241 243 244 245 246 248 252 255
265 266 264 260 263 269 271 273 275 277 278 281 285 286 285 285 284 286 287 286 286 286 282 273 260 247 240 240 237 221 193 184 194 249 258 235 228 229 230 231 229 229 230 230 231 230 230 229 226 223 221 221 222 221 220 222 225 227 227 227 227 228 227 226 223 221 221 222 224 226 228 230 232 234 235 236 236 238 240 242 243 245 246 247 249 252
261 263 267 268 271 272 270 271 274 274 275 277 277 276 279 281 282 284 287 287 285 282 280 282 282 271 249 241 243 239 226 214 209 224 243 242 246 249 242 238 231 223 225 227 227 226 226 226 223 222 221 220 218 219 220 222 225 228 228 227 227 227 225 222 220 219 220 221 223 226 228 230 231 232 234 234 234 235 237 239 242 244 246 247 249 251
263 266 270 280 289 284 278 279 279 276 278 279 276 277 279 281 282 281 280 280 280 282 281 281 286 280 250 234 243 244 240 242 241 239 244 249 253 256 255 254 247 237 234 233 229 221 216 216 216 217 218 217 215 214 216 220 224 227 228 226 226 225 222 220 218 218 218 220 223 225 227 228 228 229 230 231 231 232 233 235 238 241 244 246 248 250
264 267 271 282 291 287 283 283 280 280 282 277 270 272 273 272 274 273 273 275 276 281 285 282 283 280 257 240 248 249 249 252 251 249 254 256 254 251 250 249 247 245 244 245 248 245 231 218 213 213 215 216 216 216 218 220 222 223 224 223 223 221 219 218 218 217 217 219 221 223 224 224 224 224 226 228 230 231 232 233 235 238 242 243 246 249
262 264 268 273 278 279 281 283 280 280 282 272 264 266 268 267 270 271 271 274 275 279 282 277 274 275 265 252 251 250 251 257 260 259 262 263 262 257 252 248 244 241 242 249 258 260 252 239 228 224 223 221 221 222 224 224 223 222 220 219 219 218 217 217 216 214 214 217 218 220 222 223 224 224 225 227 229 230 231 233 234 237 240 242 244 249
261 260 262 263 263 271 277 280 280 274 265 265 266 263 262 263 267 271 273 276 277 272 268 270 272 270 264 256 253 251 252 258 267 269 267 265 265 264 259 255 250 245 244 252 262 263 257 251 245 241 235 229 228 230 230 229 228 225 219 214 215 216 216 215 214 212 212 214 216 219 223 227 229 230 230 230 231 233 234 234 235 237 240 242 243 248
258 256 257 258 256 263 271 273 271 261 260 273 272 265 264 266 269 273 275 275 274 268 264 269 272 270 265 261 258 258 259 261 262 264 264 261 262 264 264 262 260 256 254 255 258 258 255 251 248 247 245 240 236 237 236 234 232 227 219 213 212 213 213 213 211 211 213 216 220 224 227 231 234 235 237 238 237 237 238 238 239 240 241 243 244 247
252 252 251 251 251 257 263 256 247 264 273 273 270 263 262 261 258 264 268 265 262 265 269 271 270 266 264 262 259 258 265 268 260 251 250 254 254 254 255 257 259 262 262 259 253 251 252 249 245 247 249 249 245 241 241 241 236 227 218 214 213 211 211 211 211 213 217 221 224 228 231 235 237 239 243 244 243 242 241 242 243 244 245 246 246 248
246 247 245 244 245 247 251 251 257 269 271 266 265 265 263 259 257 264 273 271 264 263 268 271 269 264 260 260 259 260 268 276 265 250 243 243 245 244 245 246 249 253 258 259 254 250 249 249 247 247 247 248 247 243 242 243 238 228 219 216 215 211 209 210 212 215 219 222 224 227 231 234 238 241 245 248 248 246 244 242 243 245 247 249 250 251
242 243 242 240 242 244 248 256 261 262 262 264 268 270 270 271 270 270 272 270 266 266 268 269 270 267 262 260 259 262 271 279 273 260 252 247 246 246 245 244 245 245 246 251 255 255 254 254 253 248 242 240 242 242 242 241 238 231 222 218 216 213 209 209 212 214 218 220 222 224 227 231 236 241 245 249 252 252 250 246 244 244 247 250 252 253
240 241 241 240 242 245 245 248 248 248 258 264 265 267 267 266 267 268 266 265 266 268 266 264 266 267 267 267 267 269 276 280 278 273 267 258 250 249 248 248 249 250 249 250 254 256 255 252 250 247 241 235 234 237 239 238 235 230 224 220 218 215 211 210 211 213 217 221 224 226 226 227 231 238 244 249 254 257 256 253 249 245 246 248 251 253
234 236 236 234 237 242 243 245 248 250 256 261 263 266 267 262 261 264 263 262 266 266 263 264 266 269 271 273 273 273 277 280 279 277 277 272 261 255 254 254 253 254 254 250 248 246 245 243 242 240 238 235 234 236 237 236 233 229 224 221 219 217 214 212 212 213 216 221 226 231 231 229 229 235 241 247 252 256 258 258 255 250 246 247 250 252
231 232 231 230 233 238 240 244 249 251 255 259 261 263 264 261 256 254 254 261 262 256 257 260 262 266 268 269 270 271 271 273 275 277 281 283 277 268 263 258 254 252 249 245 243 244 244 242 240 239 238 238 239 239 237 236 234 229 225 223 221 218 217 216 215 215 216 220 225 231 236 239 239 240 243 247 252 254 256 257 258 256 251 249 250 252
225 229 230 229 231 236 239 243 251 255 257 260 262 262 259 252 249 250 256 261 259 257 259 258 255 258 263 265 267 268 266 264 265 271 279 284 283 281 279 273 265 259 254 249 248 250 249 245 241 239 238 239 242 242 240 238 236 232 228 226 223 222 221 221 220 218 219 222 227 233 241 248 250 250 250 253 255 257 257 256 257 257 255 252 252 253
224 227 228 228 230 234 237 240 246 252 256 258 260 259 253 244 244 250 252 247 245 252 258 256 252 254 258 261 263 263 262 262 263 269 277 281 282 282 282 280 276 269 263 258 253 252 252 248 242 238 237 239 243 244 241 238 236 235 233 229 227 226 226 226 225 224 224 228 233 239 246 252 256 257 258 259 260 262 262 259 256 256 257 257 256 255
227 227 230 233 232 230 229 233 241 249 256 260 259 255 251 245 243 246 246 241 239 247 258 255 250 250 250 252 256 258 259 260 261 265 270 272 273 275 275 275 275 273 270 265 257 254 255 253 245 239 236 237 241 242 239 237 236 235 235 233 232 231 231 231 231 231 232 235 240 244 248 253 257 259 260 261 262 263 264 262 258 256 257 258 259 258
232 234 239 241 238 236 237 242 249 254 257 259 255 251 252 252 248 247 251 253 253 259 267 268 262 259 256 253 253 255 256 255 255 257 261 263 265 265 266 267 269 270 271 271 267 262 260 257 250 242 237 237 240 240 237 235 236 237 236 235 236 235 235 236 237 239 240 242 244 247 250 254 258 259 259 260 260 262 262 261 258 256 256 257 258 260
242 245 247 245 243 246 247 247 250 253 253 253 252 249 251 259 263 265 268 271 272 275 280 281 278 279 280 274 268 266 263 257 254 255 259 263 265 266 265 265 265 265 268 272 273 271 267 262 256 248 243 242 242 241 237 234 236 240 240 238 238 238 239 239 241 242 243 245 246 249 252 255 257 258 259 259 259 260 259 257 255 255 255 256 256 258
245 247 246 243 243 247 250 251 254 255 255 256 258 257 259 264 268 269 269 270 273 277 281 283 280 280 282 283 282 283 282 275 265 259 259 261 263 265 266 266 267 266 267 269 272 273 273 269 261 254 250 246 245 245 241 235 235 238 241 241 239 239 241 242 243 244 245 247 248 250 251 253 254 255 256 257 257 257 256 254 253 253 253 254 255 256
244 245 243 242 243 245 250 257 261 261 260 259 259 259 261 265 267 269 270 270 272 274 276 278 279 278 279 280 283 287 292 290 280 265 255 253 256 260 262 264 265 266 267 269 269 270 272 272 266 259 255 251 249 248 244 239 236 236 238 239 238 238 241 243 244 245 247 248 250 251 251 252 252 253 254 255 255 254 254 254 253 253 253 254 255 255
246 244 243 245 246 247 252 257 261 261 260 258 257 258 263 268 270 271 272 271 267 268 272 274 274 272 273 275 278 283 289 294 292 281 263 251 250 254 257 259 262 263 265 267 267 267 268 270 268 264 261 258 253 249 245 243 240 238 238 238 237 236 237 239 240 241 243 245 247 250 251 251 251 251 252 251 251 252 253 253 253 253 253 254 254 253
246 246 247 248 246 247 253 257 259 260 260 259 259 261 266 270 269 266 266 267 263 264 270 270 266 265 269 274 277 281 285 290 293 289 276 261 254 256 256 257 259 259 260 263 264 263 263 265 265 264 263 260 253 247 246 244 242 241 240 237 233 231 232 234 236 237 238 240 243 245 247 248 249 249 249 248 248 249 250 251 252 252 252 252 251 250
247 248 247 247 247 251 258 261 262 262 262 263 265 266 266 267 265 261 264 269 269 270 273 271 266 266 272 277 279 280 282 284 287 289 285 274 266 264 264 261 260 260 259 258 259 258 258 259 260 260 260 258 251 244 244 244 242 240 236 231 228 229 233 235 237 239 239 241 241 242 243 245 247 249 249 248 247 247 249 250 251 252 252 252 251 250
Height
3027 3026 3022 3018 3018 3020 3025 3027 3028 3031 3035 3036 3036 3037 3036 3036 3036 3037 3038 3038 3039 3038 3035 3035 3033 3031 3032 3034 3038 3042 3043 3042 3041 3042 3044 3047 3050 3053 3055 3055 3056 3057 3060 3063 3064 3064 3066 3068 3069 3070 3072 3074 3076 3078 3079 3080 3082 3085 3086 3088 3089 3090 3091 3092 3093 3094 3095 3096 3096 3097 3097 3098 3099 3099 3100 3100 3100 3101 3101 3101 3101 3101 3101 3101 3101 3101
3023 3019 3013 3014 3018 3022 3025 3027 3029 3030 3032 3033 3033 3033 3032 3032 3033 3034 3034 3035 3036 3035 3032 3033 3031 3026 3028 3030 3032 3036 3038 3037 3038 3038 3040 3042 3045 3048 3051 3052 3053 3054 3057 3059 3060 3060 3062 3064 3065 3066 3068 3070 3072 3074 3076 3077 3079 3081 3082 3084 3085 3087 3088 3088 3089 3090 3091 3092 3093 3093 3094 3094 3095 3095 3096 3097 3097 3097 3097 3098 3098 3098 3097 3097 3097 3097
3016 3010 3009 3015 3019 3022 3024 3025 3026 3027 3028 3030 3030 3030 3028 3027 3030 3031 3031 3032 3033 3032 3029 3030 3027 3021 3023 3026 3027 3029 3031 3032 3034 3035 3037 3038 3040 3042 3045 3047 3049 3051 3053 3055 3056 3057 3058 3060 3061 3062 3064 3066 3068 3070 3072 3074 3075 3077 3078 3080 3081 3083 3084 3085 3086 3087 3088 3089 3089 3089 3089 3090 3091 3092 3092 3093 3093 3093 3094 3094 3094 3094 3094 3093 3093 3093
3009 3006 3010 3015 3018 3019 3021 3022 3023 3024 3024 3024 3025 3026 3022 3023 3029 3028 3027 3029 3030 3029 3027 3027 3024 3016 3016 3020 3021 3024 3026 3027 3030 3032 3033 3034 3035 3037 3040 3042 3045 3046 3049 3050 3052 3054 3055 3056 3057 3058 3060 3062 3064 3066 3067 3070 3071 3072 3074 3075 3078 3079 3081 3082 3082 3083 3085 3085 3085 3085 3085 3086 3087 3088 3088 3089 3089 3090 3091 3091 3091 3090 3090 3090 3089 3089
3004 3006 3011 3013 3014 3016 3016 3018 3020 3020 3018 3017 3019 3020 3017 3020 3026 3026 3026 3027 3026 3026 3025 3026 3023 3010 3008 3013 3013 3019 3024 3023 3025 3027 3028 3029 3030 3033 3035 3037 3039 3041 3044 3046 3048 3050 3051 3051 3052 3054 3056 3058 3060 3061 3063 3066 3067 3068 3070 3072 3073 3075 3076 3078 3079 3080 3081 3081 3081 3081 3081 3082 3083 3084 3085 3086 3086 3087 3087 3087 3087 3086 3086 3086 3085 3085
3001 3005 3010 3011 3012 3013 3013 3013 3014 3015 3015 3014 3013 3014 3015 3019 3023 3024 3024 3024 3024 3023 3022 3026 3024 3006 3000 3007 3008 3012 3018 3017 3020 3022 3021 3024 3026 3028 3029 3031 3035 3037 3040 3042 3044 3046 3046 3046 3048 3050 3052 3054 3055 3057 3059 3061 3063 3064 3066 3067 3068 3070 3071 3073 3075 3075 3076 3076 3077 3077 3078 3079 3080 3080 3081 3083 3083 3083 3083 3083 3083 3082 3082 3081 3081 3081
2998 3002 3006 3007 3008 3009 3009 3009 3009 3011 3012 3009 3008 3011 3014 3017 3020 3020 3020 3021 3021 3020 3019 3023 3025 3009 2994 2998 3004 3007 3010 3011 3014 3016 3016 3020 3022 3023 3025 3027 3030 3033 3035 3037 3039 3041 3041 3041 3043 3046 3047 3049 3051 3053 3055 3056 3057 3059 3061 3063 3064 3065 3067 3068 3070 3070 3071 3072 3072 3073 3074 3075 3076 3077 3078 3079 3079 3079 3079 3079 3079 3079 3078 3077 3077 3077
2994 2997 3000 3003 3005 3006 3005 3004 3005 3009 3008 3005 3006 3010 3011 3013 3014 3015 3016 3017 3017 3018 3019 3018 3022 3015 2992 2987 2997 3001 3002 3005 3007 3010 3012 3015 3017 3018 3021 3023 3025 3028 3030 3032 3034 3035 3036 3036 3038 3041 3043 3045 3047 3049 3050 3051 3052 3054 3056 3057 3059 3060 3062 3063 3065 3066 3066 3067 3069 3070 3071 3072 3072 3074 3074 3075 3075 3075 3075 3075 3075 3075 3074 3073 3073 3073
2992 2992 2995 3000 3000 3000 2999 2999 3002 3006 3005 3004 3006 3007 3008 3010 3011 3012 3013 3014 3015 3017 3016 3013 3018 3016 2991 2979 2991 2995 2995 2999 3001 3004 3008 3010 3013 3014 3016 3019 3022 3024 3026 3027 3028 3029 3031 3032 3033 3036 3038 3040 3041 3043 3045 3046 3047 3049 3050 3052 3054 3055 3057 3059 3060 3061 3062 3063 3065 3066 3067 3068 3069 3070 3071 3071 3071 3072 3072 3072 3072 3071 3071 3070 3069 3069
2989 2989 2992 2994 2994 2994 2995 2997 3000 3003 3003 3002 3004 3004 3006 3008 3008 3010 3010 3011 3014 3013 3009 3006 3010 3011 2990 2974 2985 2991 2989 2992 2996 3000 3004 3006 3008 3010 3012 3015 3017 3020 3021 3021 3023 3024 3026 3027 3028 3030 3033 3034 3035 3037 3039 3041 3042 3043 3045 3046 3048 3050 3052 3054 3056 3057 3058 3060 3061 3062 3063 3064 3065 3066 3067 3067 3068 3068 3068 3068 3068 3067 3067 3066 3066 3066
2985 2987 2989 2989 2989 2991 2993 2995 2997 3000 3001 3000 3001 3002 3004 3007 3006 3008 3008 3009 3012 3007 3001 2998 3001 3008 2993 2970 2976 2985 2983 2987 2992 2995 2999 3001 3003 3005 3007 3010 3012 3014 3016 3016 3018 3019 3021 3022 3023 3025 3027 3029 3030 3032 3034 3035 3036 3038 3039 3041 3043 3045 3047 3049 3051 3053 3054 3056 3057 3059 3060 3061 3062 3062 3063 3064 3064 3064 3065 3065 3065 3064 3063 3062 3062 3062
2979 2982 2983 2984 2986 2988 2990 2992 2993 2997 2998 2997 2998 3000 3002 3004 3004 3006 3006 3007 3008 3000 2994 2992 2996 3007 2995 2969 2969 2980 2981 2984 2988 2990 2993 2995 2998 3001 3003 3006 3007 3008 3010 3012 3013 3014 3016 3018 3019 3020 3022 3024 3026 3027 3029 3030 3031 3033 3034 3036 3038 3040 3042 3045 3047 3049 3051 3052 3054 3055 3056 3057 3058 3059 3059 3060 3061 3061 3061 3062 3062 3061 3060 3059 3058 3058
2973 2974 2978 2980 2982 2985 2987 2988 2990 2993 2993 2993 2994 2995 2998 3000 3002 3004 3002 3001 3000 2993 2988 2989 2993 2999 2990 2969 2966 2975 2979 2982 2984 2986 2989 2991 2993 2997 2999 3001 3002 3004 3005 3007 3008 3009 3011 3013 3014 3016 3018 3020 3021 3023 3024 3025 3027 3028 3030 3032 3034 3036 3038 3041 3044 3046 3047 3049 3050 3051 3052 3053 3054 3055 3056 3057 3058 3058 3058 3059 3058 3058 3057 3056 3055 3055
2968 2969 2972 2975 2976 2979 2982 2982 2983 2984 2986 2987 2987 2989 2992 2994 2998 3000 2997 2995 2994 2989 2985 2988 2990 2990 2983 2970 2964 2968 2974 2979 2981 2983 2986 2989 2991 2993 2995 2997 2998 2999 3001 3002 3003 3005 3006 3008 3010 3012 3013 3014 3017 3018 3019 3021 3022 3024 3026 3028 3030 3032 3035 3038 3040 3042 3043 3045 3046 3047 3048 3049 3050 3052 3053 3054 3054 3055 3055 3055 3055 3055 3054 3053 3052 3052
2967 2963 2963 2967 2968 2970 2972 2975 2978 2981 2982 2981 2983 2986 2986 2986 2989 2991 2989 2988 2987 2985 2983 2985 2987 2983 2976 2969 2964 2964 2968 2973 2977 2980 2983 2986 2988 2989 2991 2993 2995 2996 2997 2997 2999 3001 3002 3003 3005 3006 3008 3010 3012 3014 3015 3017 3018 3020 3022 3024 3026 3028 3031 3034 3037 3038 3040 3041 3042 3043 3044 3046 3047 3048 3049 3050 3051 3052 3052 3052 3052 3051 3050 3049 3049 3048
2963 2958 2958 2961 2962 2964 2966 2969 2975 2979 2978 2978 2981 2981 2978 2980 2983 2982 2980 2979 2980 2980 2978 2978 2978 2974 2969 2965 2963 2964 2965 2968 2973 2977 2980 2982 2983 2985 2985 2988 2991 2993 2994 2995 2995 2997 2998 2999 3000 3001 3003 3005 3007 3009 3010 3012 3014 3016 3019 3021 3023 3025 3028 3031 3033 3034 3035 3037 3038 3039 3041 3042 3043 3045 3046 3047 3048 3049 3049 3049 3049 3048 3047 3046 3046 3045
2958 2954 2956 2958 2958 2959 2961 2963 2968 2970 2970 2973 2974 2970 2972 2979 2980 2977 2975 2974 2975 2973 2968 2969 2970 2970 2969 2960 2955 2961 2963 2964 2968 2971 2975 2978 2980 2981 2982 2983 2986 2988 2991 2992 2992 2993 2994 2995 2996 2998 3000 3001 3003 3005 3007 3008 3010 3013 3015 3017 3019 3021 3024 3027 3028 3030 3031 3033 3034 3036 3037 3038 3040 3042 3043 3044 3045 3045 3046 3046 3045 3045 3044 3043 3042 3042
2956 2950 2951 2954 2954 2955 2958 2960 2961 2962 2964 2966 2963 2964 2972 2976 2974 2974 2973 2970 2969 2966 2960 2961 2962 2965 2966 2954 2948 2956 2959 2960 2964 2966 2969 2973 2975 2977 2979 2981 2982 2983 2986 2987 2987 2989 2990 2992 2994 2995 2997 2998 3000 3001 3003 3005 3006 3008 3011 3012 3015 3017 3020 3023 3024 3026 3027 3029 3031 3032 3034 3035 3037 3038 3040 3040 3041 3042 3043 3043 3042 3041 3040 3040 3039 3038
2955 2951 2948 2950 2952 2954 2956 2957 2956 2957 2960 2961 2960 2963 2967 2966 2965 2968 2968 2964 2963 2960 2955 2954 2954 2955 2955 2949 2947 2951 2954 2957 2961 2962 2964 2967 2969 2971 2974 2978 2980 2981 2982 2982 2984 2985 2987 2990 2991 2993 2994 2995 2996 2997 2998 3000 3002 3004 3006 3008 3011 3013 3016 3019 3020 3021 3023 3025 3027 3029 3030 3032 3033 3035 3036 3037 3038 3039 3040 3039 3039 3038 3037 3036 3036 3035
2956 2955 2949 2946 2949 2951 2952 2951 2951 2953 2956 2958 2959 2960 2959 2958 2960 2960 2959 2959 2959 2956 2952 2951 2949 2946 2946 2947 2946 2944 2948 2955 2958 2959 2962 2963 2965 2968 2969 2973 2976 2978 2979 2980 2982 2983 2985 2987 2988 2990 2991 2992 2993 2993 2994 2996 2997 3000 3002 3004 3007 3009 3012 3014 3015 3018 3020 3022 3024 3025 3027 3028 3030 3031 3032 3034 3035 3035 3036 3036 3036 3035 3034 3033 3033 3032
2955 2955 2949 2944 2945 2947 2946 2945 2946 2949 2951 2952 2954 2954 2954 2955 2956 2955 2954 2954 2954 2952 2950 2947 2942 2938 2942 2946 2943 2940 2944 2951 2955 2958 2960 2960 2962 2965 2967 2969 2970 2972 2975 2976 2978 2980 2981 2983 2985 2986 2987 2988 2989 2990 2991 2993 2994 2996 2999 3001 3003 3006 3008 3010 3012 3014 3016 3018 3020 3022 3023 3025 3026 3028 3029 3030 3031 3032 3033 3033 3033 3032 3031 3030 3030 3029
2953 2953 2949 2945 2943 2942 2941 2941 2944 2945 2946 2946 2946 2947 2949 2950 2951 2952 2949 2949 2950 2948 2946 2944 2937 2933 2940 2944 2941 2941 2944 2947 2951 2954 2956 2958 2960 2961 2963 2966 2966 2967 2969 2972 2974 2976 2977 2979 2980 2981 2983 2984 2985 2987 2988 2990 2991 2993 2995 2997 3000 3002 3005 3008 3009 3011 3013 3015 3017 3019 3020 3021 3023 3024 3025 3027 3028 3029 3029 3029 3030 3029 3028 3028 3027 3026
2952 2950 2948 2945 2942 2940 2938 2937 2939 2941 2941 2942 2942 2942 2945 2945 2945 2945 2943 2945 2947 2944 2944 2944 2936 2932 2939 2943 2942 2943 2943 2944 2945 2948 2951 2954 2955 2957 2960 2963 2964 2965 2966 2968 2970 2972 2973 2975 2976 2977 2979 2980 2982 2984 2985 2987 2988 2990 2992 2995 2997 3000 3003 3005 3006 3008 3010 3012 3014 3015 3016 3017 3019 3020 3022 3023 3024 3025 3026 3026 3027 3026 3026 3025 3024 3023
2950 2948 2946 2943 2939 2937 2936 2936 2936 2937 2938 2938 2938 2940 2941 2940 2940 2939 2939 2942 2941 2938 2941 2942 2934 2931 2938 2941 2942 2942 2942 2941 2942 2943 2947 2949 2950 2953 2955 2958 2962 2963 2964 2965 2966 2968 2970 2971 2973 2974 2975 2977 2979 2981 2982 2984 2986 2988 2990 2993 2995 2997 3000 3002 3003 3005 3006 3008 3010 3011 3012 3014 3015 3017 3018 3020 3021 3022 3023 3023 3024 3024 3024 3023 3022 3021
2949 2947 2945 2943 2940 2936 2934 2934 2934 2934 2935 2934 2933 2934 2934 2934 2936 2936 2937 2939 2935 2932 2937 2936 2929 2930 2937 2939 2940 2940 2940 2940 2941 2942 2943 2945 2947 2949 2951 2954 2957 2959 2961 2962 2964 2965 2967 2968 2970 2971 2972 2974 2976 2977 2980 2982 2984 2986 2988 2990 2992 2994 2996 2998 2999 3001 3002 3004 3005 3007 3009 3010 3012 3013 3014 3017 3018 3018 3019 3020 3021 3021 3021 3021 3020 3019
2947 2945 2946 2947 2945 2941 2936 2933 2932 2931 2931 2930 2929 2930 2930 2931 2933 2933 2935 2934 2929 2929 2932 2929 2927 2931 2934 2936 2937 2938 2938 2938 2939 2940 2941 2943 2945 2946 2948 2950 2952 2955 2956 2958 2960 2961 2963 2964 2966 2967 2969 2971 2972 2974 2976 2978 2981 2982 2984 2986 2988 2990 2992 2994 2995 2997 2998 3000 3002 3003 3005 3007 3008 3010 3011 3013 3014 3015 3016 3017 3018 3019 3019 3019 3018 3017
2944 2942 2943 2944 2942 2940 2937 2933 2931 2931 2931 2929 2929 2928 2927 2928 2930 2931 2932 2930 2927 2928 2925 2922 2928 2932 2931 2932 2935 2935 2936 2937 2937 2938 2939 2941 2943 2943 2945 2947 2948 2950 2952 2953 2955 2956 2958 2960 2961 2963 2965 2967 2968 2971 2973 2975 2977 2979 2980 2982 2984 2986 2987 2989 2991 2993 2995 2997 2998 3000 3001 3003 3005 3006 3007 3009 3010 3011 3012 3013 3015 3015 3016 3016 3016 3016
2941 2938 2938 2939 2937 2935 2935 2931 2930 2932 2931 2928 2928 2926 2924 2925 2927 2928 2928 2927 2927 2928 2922 2921 2929 2930 2926 2930 2933 2934 2934 2935 2936 2937 2937 2938 2940 2941 2941 2942 2944 2945 2946 2948 2950 2951 2953 2955 2956 2959 2961 2963 2965 2967 2969 2971 2973 2975 2976 2978 2980 2981 2983 2985 2987 2989 2991 2993 2995 2996 2998 3000 3001 3002 3003 3005 3007 3008 3009 3010 3011 3012 3013 3013 3013 3014
2937 2933 2933 2934 2932 2931 2931 2928 2928 2931 2929 2926 2925 2924 2922 2922 2923 2924 2924 2924 2926 2926 2923 2922 2924 2924 2924 2928 2930 2932 2933 2932 2933 2934 2935 2936 2938 2938 2939 2940 2941 2942 2942 2944 2945 2946 2948 2950 2952 2954 2956 2959 2961 2963 2965 2967 2968 2970 2972 2973 2975 2977 2978 2981 2983 2985 2988 2989 2991 2993 2994 2996 2997 2998 3000 3001 3003 3005 3006 3007 3008 3009 3010 3010 3010 3011
2932 2929 2930 2930 2928 2926 2926 2925 2925 2926 2926 2923 2922 2921 2921 2919 2919 2920 2920 2920 2921 2921 2921 2921 2918 2917 2921 2924 2925 2929 2931 2930 2930 2931 2932 2934 2936 2936 2937 2938 2939 2940 2940 2941 2942 2943 2944 2945 2947 2950 2951 2953 2956 2958 2960 2962 2964 2966 2968 2969 2971 2973 2975 2977 2979 2982 2984 2986 2988 2989 2990 2992 2993 2995 2996 2998 3000 3001 3002 3003 3004 3005 3006 3007 3007 3008
2930 2927 2926 2927 2925 2922 2923 2923 2922 2921 2922 2920 2917 2917 2918 2917 2916 2916 2916 2916 2916 2915 2917 2919 2915 2912 2915 2919 2920 2923 2926 2927 2926 2927 2928 2931 2933 2933 2934 2935 2936 2937 2938 2939 2940 2941 2941 2942 2943 2945 2947 2949 2951 2953 2955 2957 2959 2961 2963 2965 2967 2969 2971 2974 2976 2978 2981 2982 2984 2985 2986 2988 2990 2991 2993 2994 2996 2997 2999 3000 3001 3002 3003 3004 3004 3005
2928 2925 2924 2925 2922 2918 2919 2921 2918 2918 2918 2915 2912 2914 2915 2915 2913 2913 2913 2913 2913 2913 2914 2914 2912 2911 2913 2915 2914 2915 2919 2921 2921 2922 2924 2926 2929 2930 2929 2930 2932 2933 2934 2936 2937 2937 2938 2939 2940 2942 2944 2945 2946 2948 2950 2952 2954 2956 2958 2961 2963 2965 2968 2970 2972 2975 2977 2978 2980 2981 2983 2984 2986 2988 2989 2991 2993 2994 2995 2997 2998 2999 2999 3000 3001 3002
2924 2922 2922 2923 2919 2915 2915 2916 2916 2916 2912 2907 2908 2911 2911 2911 2910 2909 2909 2909 2910 2911 2911 2909 2909 2910 2912 2912 2910 2909 2912 2915 2917 2919 2921 2922 2924 2926 2926 2926 2927 2928 2930 2932 2933 2934 2934 2935 2937 2939 2940 2942 2943 2944 2946 2947 2950 2952 2954 2957 2959 2962 2963 2965 2968 2971 2973 2974 2976 2977 2979 2980 2982 2984 2986 2988 2989 2991 2992 2994 2995 2996 2996 2997 2998 2999
2919 2919 2919 2920 2918 2913 2911 2913 2913 2910 2903 2901 2906 2909 2907 2906 2906 2905 2903 2904 2905 2907 2907 2906 2906 2908 2909 2908 2908 2905 2905 2909 2912 2915 2917 2919 2920 2921 2922 2923 2924 2925 2926 2927 2929 2930 2931 2933 2935 2936 2937 2939 2940 2941 2942 2944 2946 2948 2950 2953 2955 2957 2959 2961 2964 2966 2968 2970 2971 2973 2974 2976 2978 2980 2982 2984 2986 2987 2989 2990 2992 2993 2993 2994 2995 2996
2914 2915 2914 2915 2915 2910 2909 2911 2906 2898 2896 2900 2903 2904 2902 2903 2903 2902 2900 2899 2899 2900 2902 2903 2903 2904 2905 2904 2903 2901 2900 2903 2906 2908 2911 2915 2916 2917 2917 2918 2920 2922 2922 2923 2925 2926 2928 2930 2932 2933 2934 2935 2937 2938 2939 2941 2942 2944 2946 2948 2949 2951 2954 2957 2959 2961 2963 2965 2967 2969 2970 2972 2974 2976 2978 2980 2982 2984 2985 2987 2988 2989 2990 2991 2992 2993
2908 2909 2908 2910 2909 2907 2906 2905 2897 2891 2894 2898 2898 2898 2899 2899 2899 2898 2895 2893 2895 2896 2897 2899 2899 2900 2900 2899 2898 2898 2897 2898 2900 2903 2906 2908 2909 2910 2910 2911 2914 2916 2917 2919 2921 2922 2924 2925 2928 2929 2930 2931 2933 2934 2936 2937 2938 2940 2942 2943 2944 2946 2949 2952 2954 2956 2958 2960 2962 2965 2967 2969 2970 2972 2974 2976 2978 2979 2981 2983 2984 2986 2987 2988 2989 2989
2903 2903 2903 2903 2903 2902 2899 2895 2892 2891 2891 2891 2892 2895 2896 2895 2895 2895 2890 2886 2890 2893 2893 2895 2896 2896 2896 2896 2895 2895 2894 2893 2894 2898 2901 2901 2901 2902 2903 2905 2908 2910 2912 2914 2916 2917 2919 2921 2923 2925 2925 2926 2927 2929 2931 2932 2934 2935 2937 2939 2940 2942 2945 2947 2949 2952 2954 2956 2959 2961 2963 2965 2966 2968 2970 2971 2973 2974 2976 2978 2980 2981 2982 2983 2985 2986
2896 2897 2898 2897 2896 2896 2894 2890 2890 2889 2884 2884 2889 2891 2891 2891 2892 2893 2887 2880 2884 2890 2890 2891 2892 2892 2892 2892 2891 2891 2891 2889 2889 2891 2893 2895 2897 2899 2900 2901 2903 2904 2906 2908 2909 2912 2914 2916 2917 2917 2918 2920 2922 2923 2925 2926 2928 2930 2932 2934 2936 2938 2939 2941 2944 2947 2950 2952 2955 2957 2959 2961 2963 2965 2966 2966 2968 2970 2971 2973 2975 2977 2978 2979 2980 2982
2890 2891 2893 2892 2890 2891 2890 2886 2885 2881 2878 2881 2886 2886 2888 2889 2889 2890 2885 2876 2879 2885 2886 2886 2888 2888 2889 2888 2888 2888 2887 2885 2885 2886 2887 2890 2893 2894 2895 2897 2898 2900 2901 2903 2903 2904 2906 2908 2909 2910 2912 2915 2917 2918 2918 2920 2922 2924 2926 2929 2931 2932 2934 2937 2940 2943 2946 2949 2951 2953 2955 2957 2959 2960 2961 2962 2964 2965 2966 2968 2970 2972 2973 2974 2976 2977
2884 2885 2887 2886 2884 2884 2883 2880 2877 2875 2874 2878 2881 2881 2884 2886 2886 2886 2878 2872 2877 2881 2881 2882 2884 2884 2885 2885 2884 2884 2883 2882 2882 2882 2883 2886 2889 2890 2891 2892 2894 2895 2897 2899 2899 2899 2899 2901 2902 2904 2907 2910 2911 2912 2913 2914 2916 2918 2920 2923 2925 2927 2929 2932 2935 2938 2941 2944 2947 2948 2949 2952 2954 2956 2957 2959 2960 2961 2961 2962 2964 2966 2968 2970 2971 2973
2878 2878 2879 2878 2877 2877 2876 2873 2871 2869 2870 2874 2876 2877 2880 2882 2880 2875 2870 2871 2876 2877 2876 2878 2879 2880 2880 2880 2880 2880 2880 2879 2880 2879 2878 2881 2883 2885 2887 2888 2889 2891 2893 2894 2894 2895 2895 2896 2898 2900 2902 2904 2905 2906 2908 2910 2911 2913 2916 2918 2919 2922 2925 2928 2930 2933 2935 2938 2941 2941 2943 2946 2948 2951 2953 2954 2955 2956 2957 2957 2959 2961 2963 2965 2967 2968
2871 2872 2871 2871 2871 2870 2869 2868 2866 2863 2864 2869 2871 2872 2876 2875 2869 2865 2868 2872 2874 2872 2871 2873 2874 2875 2875 2873 2874 2874 2874 2875 2875 2874 2874 2876 2878 2880 2882 2883 2885 2886 2888 2889 2890 2890 2890 2891 2893 2895 2897 2899 2899 2900 2903 2905 2906 2909 2911 2912 2915 2918 2921 2922 2925 2927 2930 2932 2934 2936 2937 2940 2942 2945 2947 2949 2951 2952 2952 2953 2954 2955 2958 2960 2962 2964
2864 2865 2864 2864 2864 2865 2864 2863 2861 2858 2859 2864 2866 2866 2867 2866 2862 2863 2867 2868 2867 2867 2867 2868 2869 2870 2869 2868 2868 2868 2868 2870 2870 2869 2869 2870 2872 2875 2877 2878 2880 2881 2882 2884 2884 2884 2885 2886 2888 2890 2891 2893 2894 2895 2898 2899 2901 2904 2905 2907 2911 2914 2916 2918 2920 2922 2925 2928 2929 2931 2933 2934 2936 2939 2941 2944 2946 2947 2948 2949 2950 2950 2952 2955 2958 2959
2856 2857 2857 2856 2858 2858 2856 2854 2853 2854 2856 2860 2860 2859 2860 2860 2860 2862 2863 2862 2863 2863 2862 2864 2865 2865 2864 2863 2863 2862 2863 2865 2865 2865 2865 2866 2868 2870 2872 2873 2875 2876 2877 2878 2878 2879 2880 2881 2882 2884 2885 2887 2888 2890 2892 2893 2895 2897 2900 2903 2907 2909 2911 2913 2915 2918 2921 2923 2925 2926 2928 2929 2931 2933 2935 2937 2939 2941 2942 2943 2945 2946 2947 2950 2952 2954
2846 2848 2849 2849 2850 2849 2848 2848 2850 2852 2854 2855 2855 2855 2856 2856 2857 2859 2859 2859 2859 2859 2859 2860 2861 2860 2860 2859 2858 2858 2858 2859 2859 2860 2861 2862 2863 2865 2866 2868 2870 2870 2871 2871 2872 2873 2875 2876 2877 2878 2879 2881 2883 2884 2885 2887 2888 2891 2896 2899 2902 2903 2906 2908 2910 2912 2916 2918 2919 2921 2922 2923 2924 2926 2928 2930 2932 2934 2935 2937 2939 2940 2942 2944 2947 2949
2841 2844 2844 2843 2844 2844 2843 2845 2848 2848 2849 2850 2851 2852 2853 2852 2853 2855 2855 2855 2855 2855 2855 2856 2856 2856 2856 2855 2854 2854 2854 2854 2855 2856 2856 2857 2858 2859 2861 2863 2864 2866 2866 2866 2866 2868 2869 2871 2872 2873 2874 2876 2877 2877 2879 2880 2882 2886 2890 2893 2895 2897 2900 2901 2903 2906 2909 2910 2912 2914 2915 2916 2918 2919 2921 2923 2925 2927 2929 2931 2933 2935 2936 2938 2941 2943
2838 2841 2840 2839 2839 2839 2838 2839 2843 2844 2844 2846 2847 2848 2849 2848 2849 2851 2852 2852 2852 2851 2851 2851 2852 2852 2852 2852 2852 2851 2850 2850 2850 2851 2852 2853 2854 2854 2856 2857 2859 2861 2861 2861 2862 2863 2864 2865 2867 2868 2869 2870 2870 2871 2874 2875 2877 2880 2883 2885 2887 2890 2892 2894 2897 2899 2901 2903 2905 2906 2908 2909 2911 2912 2914 2917 2918 2920 2921 2924 2926 2928 2930 2932 2935 2938
2834 2836 2835 2834 2835 2834 2833 2835 2839 2839 2840 2841 2842 2843 2844 2844 2845 2847 2848 2848 2849 2848 2847 2847 2848 2848 2848 2848 2848 2847 2847 2847 2847 2847 2848 2849 2850 2850 2851 2852 2854 2856 2857 2857 2858 2858 2859 2860 2862 2863 2864 2865 2865 2867 2869 2871 2873 2874 2876 2878 2881 2883 2885 2887 2890 2892 2894 2895 2897 2898 2900 2902 2904 2905 2907 2909 2911 2912 2914 2917 2920 2922 2924 2927 2930 2933
2831 2830 2830 2830 2830 2829 2830 2832 2835 2835 2835 2836 2837 2838 2840 2841 2841 2842 2843 2843 2844 2844 2843 2843 2843 2844 2844 2844 2844 2844 2844 2843 2843 2844 2844 2845 2845 2846 2846 2848 2849 2851 2852 2853 2854 2854 2854 2855 2856 2858 2859 2860 2861 2862 2864 2866 2868 2869 2871 2873 2875 2877 2880 2882 2884 2886 2888 2889 2891 2892 2894 2895 2897 2898 2900 2902 2904 2906 2908 2910 2913 2916 2918 2921 2923 2926
2826 2825 2826 2827 2826 2825 2826 2829 2831 2831 2830 2831 2833 2835 2836 2837 2837 2837 2838 2838 2839 2840 2840 2840 2840 2840 2840 2840 2840 2840 2840 2840 2840 2841 2841 2841 2841 2842 2842 2844 2845 2846 2847 2848 2849 2850 2851 2850 2851 2852 2854 2855 2857 2858 2859 2861 2862 2865 2867 2869 2870 2873 2875 2878 2880 2881 2883 2884 2886 2887 2889 2890 2891 2892 2894 2896 2898 2899 2901 2904 2906 2909 2911 2914 2917 2919
2820 2820 2822 2822 2821 2821 2823 2826 2827 2827 2827 2828 2830 2832 2832 2832 2833 2833 2834 2835 2835 2836 2837 2837 2837 2837 2837 2837 2836 2836 2837 2837 2837 2837 2838 2838 2838 2838 2839 2840 2840 2841 2842 2843 2844 2846 2846 2846 2847 2847 2849 2851 2853 2854 2854 2856 2858 2860 2862 2864 2866 2868 2870 2873 2875 2877 2878 2880 2881 2882 2884 2885 2886 2887 2888 2890 2892 2893 2895 2897 2899 2902 2905 2908 2910 2912